Time,TemperatureF,DewpointF,PressureIn,WindDirection,WindDirectionDegrees,WindSpeedMPH,WindSpeedGustMPH,Humidity,HourlyPrecipIn,Conditions,Clouds,dailyrainin,SoftwareType,DateUTC
2013-08-27 00:02:00,72.1,66.0,30.10,ESE,119,0.0,0.0,81,0.00,,,0.05,weatherlink.com 1.10,2013-08-27 05:02:00,
2013-08-27 00:17:00,72.0,66.0,30.10,ESE,119,0.0,0.0,81,0.00,,,0.00,weatherlink.com 1.10,2013-08-27 05:17:00,
2013-08-27 00:32:00,72.1,66.0,30.09,ESE,119,0.0,0.0,81,0.00,,,0.00,weatherlink.com 1.10,2013-08-27 05:32:00,
2013-08-27 00:47:00,72.1,66.0,30.09,ESE,119,0.0,0.0,80,0.00,,,0.00,weatherlink.com 1.10,2013-08-27 05:47:00,
2013-08-27 01:02:00,72.2,66.0,30.10,ESE,119,0.0,1.0,80,0.00,,,0.00,weatherlink.com 1.10,2013-08-27 06:02:00,
2013-08-27 01:17:00,72.5,66.0,30.10,ESE,119,0.0,0.0,80,0.00,,,0.00,weatherlink.com 1.10,2013-08-27 06:17:00,
2013-08-27 01:32:00,72.6,66.0,30.09,ESE,119,0.0,0.0,80,0.00,,,0.00,weatherlink.com 1.10,2013-08-27 06:32:00,
2013-08-27 01:47:00,72.4,66.0,30.08,ESE,119,0.0,0.0,80,0.00,,,0.00,weatherlink.com 1.10,2013-08-27 06:47:00,
2013-08-27 02:02:00,72.4,66.0,30.09,ESE,119,0.0,0.0,80,0.00,,,0.00,weatherlink.com 1.10,2013-08-27 07:02:00,
2013-08-27 02:17:00,72.6,66.0,30.09,ESE,119,0.0,1.0,80,0.00,,,0.00,weatherlink.com 1.10,2013-08-27 07:17:00,
2013-08-27 02:32:00,72.6,66.0,30.08,ESE,119,0.0,0.0,80,0.00,,,0.00,weatherlink.com 1.10,2013-08-27 07:32:00,
2013-08-27 02:47:00,72.3,66.0,30.09,ESE,119,0.0,0.0,80,0.00,,,0.00,weatherlink.com 1.10,2013-08-27 07:47:00,
2013-08-27 03:02:00,71.9,65.0,30.09,ESE,119,0.0,0.0,80,0.00,,,0.00,weatherlink.com 1.10,2013-08-27 08:02:00,
2013-08-27 03:17:00,71.8,65.0,30.09,ESE,119,0.0,0.0,80,0.00,,,0.00,weatherlink.com 1.10,2013-08-27 08:17:00,
2013-08-27 03:32:00,71.7,65.0,30.09,ESE,119,0.0,0.0,80,0.00,,,0.00,weatherlink.com 1.10,2013-08-27 08:32:00,
2013-08-27 03:47:00,71.5,65.0,30.09,ESE,119,0.0,0.0,80,0.00,,,0.00,weatherlink.com 1.10,2013-08-27 08:47:00,
2013-08-27 04:02:00,71.5,65.0,30.10,ESE,119,0.0,0.0,80,0.00,,,0.00,weatherlink.com 1.10,2013-08-27 09:02:00,
2013-08-27 04:17:00,71.5,65.0,30.10,ESE,119,0.0,0.0,80,0.00,,,0.00,weatherlink.com 1.10,2013-08-27 09:17:00,
2013-08-27 04:32:00,71.3,65.0,30.10,ESE,119,0.0,0.0,80,0.00,,,0.00,weatherlink.com 1.10,2013-08-27 09:32:00,
2013-08-27 04:47:00,71.3,65.0,30.10,ESE,119,0.0,0.0,80,0.00,,,0.00,weatherlink.com 1.10,2013-08-27 09:47:00,
2013-08-27 05:02:00,71.2,64.0,30.11,ESE,119,0.0,0.0,79,0.00,,,0.00,weatherlink.com 1.10,2013-08-27 10:02:00,
2013-08-27 05:17:00,71.3,65.0,30.10,ESE,119,0.0,0.0,79,0.00,,,0.00,weatherlink.com 1.10,2013-08-27 10:17:00,
2013-08-27 05:32:00,71.3,65.0,30.11,ESE,119,0.0,0.0,79,0.00,,,0.00,weatherlink.com 1.10,2013-08-27 10:32:00,
2013-08-27 05:47:00,71.2,64.0,30.11,ESE,119,0.0,0.0,79,0.00,,,0.00,weatherlink.com 1.10,2013-08-27 10:47:00,
2013-08-27 06:02:00,71.0,64.0,30.11,ESE,119,0.0,0.0,79,0.00,,,0.00,weatherlink.com 1.10,2013-08-27 11:02:00,
2013-08-27 06:18:00,70.8,64.0,30.11,ESE,119,0.0,0.0,79,0.00,,,0.00,weatherlink.com 1.10,2013-08-27 11:18:00,
2013-08-27 06:33:00,70.7,64.0,30.12,SE,134,0.0,0.0,79,0.00,,,0.00,weatherlink.com 1.10,2013-08-27 11:33:00,
2013-08-27 06:48:00,70.5,64.0,30.12,East,89,0.0,0.0,79,0.00,,,0.00,weatherlink.com 1.10,2013-08-27 11:48:00,
2013-08-27 07:03:00,70.4,64.0,30.12,East,89,0.0,0.0,79,0.00,,,0.00,weatherlink.com 1.10,2013-08-27 12:03:00,
2013-08-27 07:18:00,70.6,63.0,30.13,East,89,0.0,0.0,78,0.00,,,0.00,weatherlink.com 1.10,2013-08-27 12:18:00,
2013-08-27 07:33:00,70.8,64.0,30.13,East,89,0.0,0.0,78,0.00,,,0.00,weatherlink.com 1.10,2013-08-27 12:33:00,
2013-08-27 07:48:00,71.3,64.0,30.13,East,89,0.0,0.0,78,0.00,,,0.00,weatherlink.com 1.10,2013-08-27 12:48:00,
2013-08-27 08:03:00,71.7,65.0,30.14,East,89,0.0,0.0,78,0.00,,,0.00,weatherlink.com 1.10,2013-08-27 13:03:00,
2013-08-27 08:18:00,72.3,65.0,30.14,East,89,0.0,0.0,77,0.00,,,0.00,weatherlink.com 1.10,2013-08-27 13:18:00,
2013-08-27 08:33:00,73.4,66.0,30.14,East,89,0.0,0.0,77,0.00,,,0.00,weatherlink.com 1.10,2013-08-27 13:33:00,
2013-08-27 08:48:00,74.1,66.0,30.14,East,91,0.0,1.0,77,0.00,,,0.00,weatherlink.com 1.10,2013-08-27 13:48:00,
2013-08-27 09:03:00,75.7,69.0,30.14,East,91,0.0,1.0,79,0.00,,,0.00,weatherlink.com 1.10,2013-08-27 14:03:00,
2013-08-27 09:18:00,76.9,72.0,30.14,East,91,0.0,1.0,85,0.00,,,0.00,weatherlink.com 1.10,2013-08-27 14:18:00,
2013-08-27 09:33:00,78.2,73.0,30.14,East,91,0.0,1.0,84,0.00,,,0.00,weatherlink.com 1.10,2013-08-27 14:33:00,
2013-08-27 09:48:00,79.6,73.0,30.14,East,95,0.0,2.0,81,0.00,,,0.00,weatherlink.com 1.10,2013-08-27 14:48:00,
2013-08-27 10:03:00,82.3,74.0,30.14,East,101,0.0,1.0,76,0.00,,,0.00,weatherlink.com 1.10,2013-08-27 15:03:00,
2013-08-27 10:18:00,84.6,73.0,30.14,SW,217,0.0,3.0,69,0.00,,,0.00,weatherlink.com 1.10,2013-08-27 15:18:00,
2013-08-27 10:33:00,84.0,72.0,30.14,South,183,0.0,3.0,68,0.00,,,0.00,weatherlink.com 1.10,2013-08-27 15:33:00,
2013-08-27 10:48:00,84.9,73.0,30.14,SW,233,0.0,5.0,67,0.00,,,0.00,weatherlink.com 1.10,2013-08-27 15:48:00,
2013-08-27 11:03:00,85.1,72.0,30.14,South,185,0.0,4.0,66,0.00,,,0.00,weatherlink.com 1.10,2013-08-27 16:03:00,
2013-08-27 11:18:00,86.8,72.0,30.13,West,269,0.0,4.0,61,0.00,,,0.00,weatherlink.com 1.10,2013-08-27 16:18:00,
2013-08-27 11:33:00,89.3,72.0,30.13,North,9,3.0,5.0,57,0.00,,,0.00,weatherlink.com 1.10,2013-08-27 16:33:00,
2013-08-27 11:48:00,88.3,71.0,30.13,WSW,255,0.0,7.0,56,0.00,,,0.00,weatherlink.com 1.10,2013-08-27 16:48:00,
2013-08-27 12:03:00,87.0,70.0,30.12,SSE,168,0.0,3.0,58,0.00,,,0.00,weatherlink.com 1.10,2013-08-27 17:03:00,
2013-08-27 12:18:00,86.7,70.0,30.12,WSW,243,0.0,2.0,57,0.00,,,0.00,weatherlink.com 1.10,2013-08-27 17:18:00,
2013-08-27 12:33:00,87.7,71.0,30.11,SSE,157,6.0,6.0,57,0.00,,,0.00,weatherlink.com 1.10,2013-08-27 17:33:00,
2013-08-27 12:48:00,89.7,72.0,30.11,SE,140,2.0,6.0,56,0.00,,,0.00,weatherlink.com 1.10,2013-08-27 17:48:00,
2013-08-27 13:03:00,91.0,72.0,30.10,SSW,200,0.0,7.0,53,0.00,,,0.00,weatherlink.com 1.10,2013-08-27 18:03:00,
2013-08-27 13:19:00,91.5,70.0,30.10,SW,227,0.0,4.0,50,0.00,,,0.00,weatherlink.com 1.10,2013-08-27 18:19:00,
2013-08-27 13:34:00,90.9,69.0,30.09,WSW,245,0.0,6.0,49,0.00,,,0.00,weatherlink.com 1.10,2013-08-27 18:34:00,
2013-08-27 13:49:00,91.8,69.0,30.09,West,262,3.0,5.0,48,0.00,,,0.00,weatherlink.com 1.10,2013-08-27 18:49:00,
2013-08-27 14:04:00,91.5,69.0,30.09,West,265,0.0,5.0,48,0.00,,,0.00,weatherlink.com 1.10,2013-08-27 19:04:00,
2013-08-27 14:19:00,90.1,71.0,30.08,ESE,122,3.0,5.0,53,0.00,,,0.00,weatherlink.com 1.10,2013-08-27 19:19:00,
2013-08-27 14:34:00,89.0,71.0,30.07,SE,135,0.0,7.0,56,0.00,,,0.00,weatherlink.com 1.10,2013-08-27 19:34:00,
2013-08-27 14:49:00,88.8,69.0,30.07,South,180,0.0,4.0,53,0.00,,,0.00,weatherlink.com 1.10,2013-08-27 19:49:00,
2013-08-27 15:04:00,89.2,69.0,30.06,WNW,291,0.0,5.0,51,0.00,,,0.00,weatherlink.com 1.10,2013-08-27 20:04:00,
2013-08-27 15:19:00,91.1,69.0,30.05,WNW,288,0.0,4.0,49,0.00,,,0.00,weatherlink.com 1.10,2013-08-27 20:19:00,
2013-08-27 15:34:00,91.1,68.0,30.05,WNW,303,0.0,5.0,47,0.00,,,0.00,weatherlink.com 1.10,2013-08-27 20:34:00,
2013-08-27 15:49:00,91.1,69.0,30.05,North,9,4.0,5.0,48,0.00,,,0.00,weatherlink.com 1.10,2013-08-27 20:49:00,
2013-08-27 16:04:00,93.5,68.0,30.05,SSW,205,0.0,1.0,43,0.00,,,0.00,weatherlink.com 1.10,2013-08-27 21:04:00,
2013-08-27 16:49:00,94.9,70.0,30.04,ESE,109,0.0,3.0,44,0.00,,,0.00,weatherlink.com 1.10,2013-08-27 21:49:00,
2013-08-27 17:04:00,93.8,68.0,30.04,SW,229,0.0,6.0,43,0.00,,,0.00,weatherlink.com 1.10,2013-08-27 22:04:00,
2013-08-27 17:19:00,92.6,69.0,30.04,SW,228,0.0,1.0,46,0.00,,,0.00,weatherlink.com 1.10,2013-08-27 22:19:00,
2013-08-27 17:34:00,91.2,69.0,30.04,SW,228,0.0,1.0,49,0.00,,,0.00,weatherlink.com 1.10,2013-08-27 22:34:00,
2013-08-27 17:49:00,91.1,69.0,30.03,SW,228,0.0,1.0,48,0.00,,,0.00,weatherlink.com 1.10,2013-08-27 22:49:00,
2013-08-27 18:04:00,91.8,69.0,30.02,SW,228,0.0,1.0,48,0.00,,,0.00,weatherlink.com 1.10,2013-08-27 23:04:00,
2013-08-27 18:19:00,91.7,67.0,30.02,SW,228,0.0,1.0,45,0.00,,,0.00,weatherlink.com 1.10,2013-08-27 23:19:00,
2013-08-27 18:34:00,91.1,69.0,30.02,SW,228,0.0,0.0,48,0.00,,,0.00,weatherlink.com 1.10,2013-08-27 23:34:00,
2013-08-27 18:49:00,89.4,69.0,30.02,SW,228,0.0,0.0,52,0.00,,,0.00,weatherlink.com 1.10,2013-08-27 23:49:00,
2013-08-27 19:04:00,88.4,70.0,30.02,SW,228,0.0,0.0,54,0.00,,,0.00,weatherlink.com 1.10,2013-08-28 00:04:00,
2013-08-27 19:19:00,87.1,71.0,30.02,SW,228,0.0,0.0,60,0.00,,,0.00,weatherlink.com 1.10,2013-08-28 00:19:00,
2013-08-27 19:34:00,85.2,71.0,30.02,SW,228,0.0,0.0,63,0.00,,,0.00,weatherlink.com 1.10,2013-08-28 00:34:00,
2013-08-27 19:49:00,83.6,70.0,30.02,SW,228,0.0,0.0,64,0.00,,,0.00,weatherlink.com 1.10,2013-08-28 00:49:00,
2013-08-27 20:04:00,82.5,70.0,30.02,SW,228,0.0,0.0,67,0.00,,,0.00,weatherlink.com 1.10,2013-08-28 01:04:00,
2013-08-27 20:19:00,81.3,69.0,30.02,SW,228,0.0,0.0,66,0.00,,,0.00,weatherlink.com 1.10,2013-08-28 01:19:00,
2013-08-27 20:34:00,80.3,69.0,30.02,SW,228,0.0,0.0,69,0.00,,,0.00,weatherlink.com 1.10,2013-08-28 01:34:00,
2013-08-27 20:49:00,79.4,70.0,30.02,SW,228,0.0,0.0,72,0.00,,,0.00,weatherlink.com 1.10,2013-08-28 01:49:00,
2013-08-27 21:18:00,78.3,69.0,30.03,SW,228,0.0,0.0,74,0.00,,,0.00,weatherlink.com 1.10,2013-08-28 02:18:00,
2013-08-27 21:34:00,78.0,70.0,30.04,SW,228,0.0,0.0,76,0.00,,,0.00,weatherlink.com 1.10,2013-08-28 02:34:00,
2013-08-27 21:49:00,77.6,70.0,30.04,SW,228,0.0,0.0,77,0.00,,,0.00,weatherlink.com 1.10,2013-08-28 02:49:00,
2013-08-27 22:04:00,77.5,70.0,30.04,SW,228,0.0,0.0,77,0.00,,,0.00,weatherlink.com 1.10,2013-08-28 03:04:00,
2013-08-27 22:19:00,77.1,70.0,30.04,SW,228,0.0,0.0,78,0.00,,,0.00,weatherlink.com 1.10,2013-08-28 03:19:00,
2013-08-27 22:34:00,76.8,70.0,30.04,SW,228,0.0,0.0,79,0.00,,,0.00,weatherlink.com 1.10,2013-08-28 03:34:00,
2013-08-27 22:49:00,76.5,70.0,30.04,SW,228,0.0,0.0,79,0.00,,,0.00,weatherlink.com 1.10,2013-08-28 03:49:00,
2013-08-27 23:04:00,76.5,70.0,30.04,SW,228,0.0,0.0,81,0.00,,,0.00,weatherlink.com 1.10,2013-08-28 04:04:00,
2013-08-27 23:19:00,76.1,70.0,30.03,SW,228,0.0,0.0,81,0.00,,,0.00,weatherlink.com 1.10,2013-08-28 04:19:00,
2013-08-27 23:29:00,75.9,70.0,30.03,SW,228,0.0,0.0,82,0.00,,,0.00,weatherlink.com 1.10,2013-08-28 04:29:00,
2013-08-27 23:43:00,75.6,70.0,30.03,SW,228,0.0,0.0,82,0.00,,,0.00,weatherlink.com 1.10,2013-08-28 04:43:00,
2013-08-27 23:58:00,75.5,70.0,30.03,SW,228,0.0,0.0,83,0.00,,,0.00,weatherlink.com 1.10,2013-08-28 04:58:00,